Andrews AFB, MD

10:50 AM EST on February 20, 2017 (GMT -0500)
Andrews Air Force Base-Naf

Weather History for KADW - January, 2014

Change the Weather History Date:

Saturday, January 11, 2014

  Actual Average Record
Temperature  
Mean Temperature 48 °F -  
Max Temperature 61 °F 40 °F 61 °F (2014)
Min Temperature 35 °F 24 °F 6 °F (2004)
Degree Days  
Heating Degree Days 17    
Moisture  
Dew Point 45 °F    
Average Humidity 99    
Maximum Humidity 100    
Minimum Humidity 72    
Precipitation  
Precipitation 0.49 in - - ()
Sea Level Pressure  
Sea Level Pressure 29.79 in    
Wind  
Wind Speed 6 mph (SSW)    
Max Wind Speed 23 mph    
Max Gust Speed 36 mph    
Visibility 4 miles    
Events Fog , Rain    
Averages and records for this station are not official NWS values.
T = Trace of Precipitation, MM = Missing Value Source: NWS Daily Summary

Daily Weather History Graph

Daily Weather History Graph

Search for Another Location

Airport or City:

Trip Planner

Search our weather history database for the weather conditions in past years. The results will help you decide how hot, cold, wet, or windy it might be!

Date:

Astronomy

Jan. 11, 2014 Rise Set
Actual Time 7:25 AM EST 5:05 PM EST
Civil Twilight 6:56 AM EST 5:35 PM EST
Nautical Twilight 6:23 AM EST 6:08 PM EST
Astronomical Twilight 5:51 AM EST 6:40 PM EST
Moon 1:47 PM EST (1/11) 3:28 AM EST (1/11)
Length of Visible Light 10h 38m
Length of Day
9h 40m
Waxing Gibbous, 83% of the Moon is Illuminated
Jan 11
Waxing Gibbous
Jan 15
Full
Jan 24
Last Quarter
Jan 30
New
Feb 6
First Quarter

Hourly Weather History & Observations

Time (EST) Temp. Windchill Dew Point Humidity Pressure Visibility Wind Dir Wind Speed Gust Speed Precip Events Conditions
12:28 AM 35.6 °F - 35.6 °F 100% 30.11 in 0.2 mi WNW 2.3 mph - N/A Fog Fog
12:58 AM 36.0 °F 32.1 °F 35.8 °F 99% 30.12 in 0.2 mi NW 4.6 mph - 0.00 in Fog Light Drizzle
1:08 AM 35.6 °F 32.8 °F 35.6 °F 100% 30.09 in 0.5 mi NW 3.5 mph - N/A Fog Light Drizzle
1:18 AM 35.6 °F 31.7 °F 35.6 °F 100% 30.08 in 0.2 mi NW 4.6 mph - N/A Fog Light Drizzle
1:48 AM 35.6 °F 29.2 °F 35.6 °F 100% 30.03 in 0.2 mi East 8.1 mph - N/A Fog , Rain Light Rain
1:53 AM 35.6 °F - 35.6 °F 100% 30.05 in 0.2 mi Variable 2.3 mph - N/A Fog , Rain Light Rain
1:58 AM 35.6 °F 30.7 °F 35.6 °F 100% 30.08 in 0.5 mi NW 5.8 mph - 0.00 in Fog , Rain Light Rain
2:13 AM 35.6 °F - 35.6 °F 100% 30.05 in 0.5 mi East 2.3 mph - N/A Fog , Rain Light Rain
2:23 AM 35.6 °F 31.7 °F 35.6 °F 100% 30.03 in 0.5 mi East 4.6 mph - N/A Fog , Rain Light Rain
2:28 AM 35.6 °F - 35.6 °F 100% 30.03 in 0.8 mi East 2.3 mph - N/A Rain Light Rain
2:33 AM 35.6 °F - 35.6 °F 100% 30.02 in 0.8 mi NE 2.3 mph - N/A Rain Light Rain
2:38 AM 35.6 °F 32.8 °F 35.6 °F 100% 30.02 in 1.0 mi NNE 3.5 mph - N/A Rain Light Rain
2:58 AM 36.1 °F 31.4 °F 35.8 °F 99% 30.04 in 1.0 mi NNE 5.8 mph - 0.02 in   Mist
3:08 AM 35.6 °F 28.0 °F 35.6 °F 100% 30.04 in 1.2 mi West 10.4 mph 21.9 mph N/A   Light Drizzle
3:13 AM 37.4 °F 30.8 °F 35.6 °F 93% 30.03 in 2.0 mi West 9.2 mph 21.9 mph N/A Rain Rain
3:18 AM 37.4 °F 33.8 °F 37.4 °F 100% 30.02 in 4.0 mi WNW 4.6 mph - N/A Rain Light Rain
3:28 AM 37.4 °F 34.9 °F 37.4 °F 100% 30.01 in 4.0 mi WNW 3.5 mph - N/A   Light Drizzle
3:38 AM 37.4 °F - 37.4 °F 100% 30.00 in 4.0 mi WNW 1.2 mph - N/A   Light Drizzle
3:43 AM 37.4 °F - 37.4 °F 100% 29.99 in 3.0 mi Calm Calm - N/A   Overcast
3:48 AM 37.4 °F - 37.4 °F 100% 29.99 in 2.5 mi ENE 1.2 mph - N/A   Overcast
3:53 AM 37.4 °F - 37.4 °F 100% 29.99 in 1.8 mi Calm Calm - N/A   Overcast
3:58 AM 37.2 °F - 37.0 °F 99% 30.01 in 1.8 mi Calm Calm - 0.00 in   Overcast
4:08 AM 37.4 °F - 37.4 °F 100% 29.98 in 1.2 mi NNW 2.3 mph - N/A   Overcast
4:13 AM 37.4 °F - 37.4 °F 100% 29.98 in 1.5 mi NNW 1.2 mph - N/A   Overcast
4:28 AM 37.4 °F - 37.4 °F 100% 29.97 in 1.2 mi Calm Calm - N/A   Overcast
4:38 AM 37.4 °F - 37.4 °F 100% 29.96 in 1.5 mi Calm Calm - N/A   Overcast
4:48 AM 37.4 °F - 37.4 °F 100% 29.96 in 2.0 mi Calm Calm - N/A   Overcast
4:53 AM 37.4 °F - 37.4 °F 100% 29.96 in 1.8 mi Calm Calm - N/A   Overcast
4:58 AM 37.4 °F - 37.4 °F 100% 29.98 in 1.5 mi Variable 1.2 mph - N/A   Overcast
5:08 AM 37.4 °F - 37.4 °F 100% 29.94 in 1.2 mi East 2.3 mph - N/A   Overcast
5:13 AM 37.4 °F - 37.4 °F 100% 29.94 in 1.5 mi Calm Calm - N/A   Overcast
5:18 AM 37.4 °F - 37.4 °F 100% 29.93 in 1.5 mi East 2.3 mph - N/A   Overcast
5:43 AM 37.4 °F - 37.4 °F 100% 29.92 in 1.2 mi Calm Calm - N/A   Overcast
5:48 AM 37.4 °F - 37.4 °F 100% 29.92 in 1.0 mi Calm Calm - N/A   Overcast
5:53 AM 37.4 °F - 37.4 °F 100% 29.91 in 1.0 mi Calm Calm - N/A   Overcast
5:58 AM 37.6 °F - 37.4 °F 99% 29.94 in 0.8 mi West 2.3 mph - N/A   Overcast
6:03 AM 37.4 °F - 37.4 °F 100% 29.90 in 0.5 mi East 2.3 mph - N/A Fog Fog
6:08 AM 37.4 °F - 37.4 °F 100% 29.90 in 0.5 mi East 2.3 mph - N/A Fog Fog
6:23 AM 37.4 °F 33.8 °F 37.4 °F 100% 29.89 in 0.5 mi ESE 4.6 mph - N/A Fog , Rain Light Rain
6:33 AM 37.4 °F 33.8 °F 37.4 °F 100% 29.88 in 0.8 mi ESE 4.6 mph - N/A Rain Light Rain
6:38 AM 37.4 °F 34.9 °F 37.4 °F 100% 29.88 in 1.0 mi ESE 3.5 mph - N/A Rain Light Rain
6:53 AM 37.4 °F - 37.4 °F 100% 29.87 in 0.8 mi East 2.3 mph - N/A   Overcast
6:58 AM 37.4 °F - 37.4 °F 100% 29.90 in 0.8 mi ENE 1.2 mph - 0.03 in   Overcast
7:08 AM 37.4 °F - 37.4 °F 100% 29.86 in 1.0 mi SE 1.2 mph - N/A   Overcast
7:13 AM 37.4 °F - 37.4 °F 100% 29.86 in 1.0 mi East 1.2 mph - N/A   Overcast
7:18 AM 37.4 °F - 37.4 °F 100% 29.86 in 1.0 mi SSE 1.2 mph - N/A   Overcast
7:23 AM 37.4 °F - 37.4 °F 100% 29.86 in 1.0 mi SE 1.2 mph - N/A   Overcast
7:28 AM 37.4 °F - 37.4 °F 100% 29.85 in 0.8 mi ESE 2.3 mph - N/A   Overcast
7:33 AM 37.4 °F - 37.4 °F 100% 29.84 in 0.2 mi ESE 2.3 mph - N/A Fog Fog
7:38 AM 37.4 °F - 37.4 °F 100% 29.84 in 0.2 mi ESE 2.3 mph - N/A Fog , Rain Light Rain
7:58 AM 40.8 °F 36.9 °F 40.6 °F 99% 29.86 in 0.2 mi SSE 5.8 mph - 0.02 in Fog Fog
8:08 AM 42.8 °F 39.3 °F 42.8 °F 100% 29.82 in 0.2 mi SSE 5.8 mph - N/A Fog Fog
8:13 AM 42.8 °F 39.3 °F 42.8 °F 100% 29.82 in 0.2 mi SSE 5.8 mph - N/A Fog Fog
8:18 AM 42.8 °F 39.3 °F 42.8 °F 100% 29.82 in 0.2 mi SSE 5.8 mph - N/A Fog Light Drizzle
8:33 AM 44.6 °F 39.7 °F 44.6 °F 100% 29.81 in 0.2 mi SE 9.2 mph - N/A Fog Light Drizzle
8:48 AM 48.2 °F - 48.2 °F 100% 29.79 in 0.2 mi SSE 8.1 mph - N/A Fog Fog
8:53 AM 48.2 °F - 48.2 °F 100% 29.79 in 0.2 mi SSE 9.2 mph - N/A Fog Fog
8:58 AM 48.7 °F - 48.6 °F 99% 29.82 in 0.2 mi SSE 8.1 mph - 0.00 in Fog Fog
9:23 AM 53.6 °F - 51.8 °F 94% 29.78 in 0.5 mi South 11.5 mph - N/A Fog Fog
9:28 AM 53.6 °F - 53.6 °F 100% 29.78 in 0.8 mi South 10.4 mph - N/A   Overcast
9:33 AM 55.4 °F - 53.6 °F 94% 29.77 in 1.0 mi South 10.4 mph - N/A   Overcast
9:43 AM 55.4 °F - 55.4 °F 100% 29.76 in 1.2 mi South 11.5 mph - N/A   Light Drizzle
9:48 AM 55.4 °F - 55.4 °F 100% 29.76 in 1.8 mi South 12.7 mph - N/A   Overcast
9:58 AM 55.8 °F - 55.4 °F 99% 29.78 in 2.0 mi South 13.8 mph - 0.00 in   Overcast
10:13 AM 55.4 °F - 55.4 °F 100% 29.75 in 3.0 mi South 11.5 mph - N/A   Light Drizzle
10:35 AM 57.2 °F - 57.2 °F 100% 29.75 in 5.0 mi SW 20.7 mph 26.5 mph N/A   Overcast
10:40 AM 48.2 °F - 48.2 °F 100% 29.75 in 1.2 mi West 15.0 mph 35.7 mph N/A   Overcast
10:45 AM 44.6 °F 39.7 °F 44.6 °F 100% 29.75 in 0.8 mi WSW 9.2 mph 35.7 mph N/A   Light Drizzle
10:50 AM 44.6 °F 38.8 °F 44.6 °F 100% 29.75 in 1.0 mi WSW 11.5 mph 32.2 mph N/A Rain Rain
10:55 AM 44.6 °F 39.2 °F 44.6 °F 100% 29.75 in 1.5 mi WSW 10.4 mph - N/A Rain Light Rain
10:58 AM 44.6 °F 40.2 °F 44.6 °F 100% 29.78 in 2.0 mi WSW 8.1 mph - 0.06 in Rain Light Rain
11:03 AM 42.8 °F 37.5 °F 42.8 °F 100% 29.75 in 3.0 mi SW 9.2 mph - N/A Rain Rain
11:08 AM 42.8 °F 37.0 °F 42.8 °F 100% 29.75 in 2.0 mi SSW 10.4 mph - N/A Rain Heavy Rain
11:18 AM 42.8 °F 37.5 °F 42.8 °F 100% 29.72 in 3.0 mi South 9.2 mph - N/A Rain Light Rain
11:28 AM 44.6 °F 40.2 °F 44.6 °F 100% 29.69 in 6.0 mi South 8.1 mph - N/A Rain Rain
11:58 AM 50.2 °F - 50.2 °F 100% 29.68 in 10.0 mi South 9.2 mph - 0.11 in   Light Drizzle
12:58 PM 57.0 °F - 57.0 °F 100% 29.60 in 10.0 mi South 15.0 mph - 0.03 in Rain Light Rain
1:13 PM 59.0 °F - 59.0 °F 100% 29.56 in 10.0 mi South 16.1 mph 25.3 mph N/A   Overcast
1:23 PM 59.0 °F - 59.0 °F 100% 29.55 in 10.0 mi South 18.4 mph 26.5 mph N/A   Overcast
1:38 PM 59.0 °F - 59.0 °F 100% 29.54 in 10.0 mi South 16.1 mph 25.3 mph N/A Rain Light Rain
1:48 PM 60.8 °F - 60.8 °F 100% 29.52 in 10.0 mi South 17.3 mph 25.3 mph N/A   Overcast
1:56 PM 60.8 °F - 60.8 °F 100% 29.52 in 10.0 mi SW 21.9 mph 33.4 mph N/A   Overcast
1:58 PM 61.0 °F - 61.0 °F 100% 29.57 in 10.0 mi WSW 23.0 mph 33.4 mph 0.01 in   Overcast
2:03 PM 59.0 °F - 59.0 °F 100% 29.53 in 1.2 mi WSW 17.3 mph 33.4 mph N/A Rain Heavy Rain
2:08 PM 57.2 °F - 57.2 °F 100% 29.53 in 1.0 mi West 16.1 mph 29.9 mph N/A Rain Light Rain
2:13 PM 57.2 °F - 57.2 °F 100% 29.54 in 2.0 mi WSW 12.7 mph - N/A Rain Rain
2:18 PM 55.4 °F - 55.4 °F 100% 29.54 in 8.0 mi WSW 12.7 mph - N/A Rain Light Rain
2:33 PM 55.4 °F - 55.4 °F 100% 29.53 in 10.0 mi WNW 10.4 mph - N/A Rain Light Rain
2:58 PM 53.4 °F - 53.4 °F 100% 29.57 in 10.0 mi WSW 10.4 mph - 0.12 in Rain Light Rain
3:08 PM 53.6 °F - 53.6 °F 100% 29.53 in 10.0 mi West 8.1 mph - N/A Rain Light Rain
3:18 PM 53.6 °F - 53.6 °F 100% 29.56 in 7.0 mi SW 9.2 mph - N/A Rain Light Rain
3:23 PM 53.6 °F - 53.6 °F 100% 29.56 in 7.0 mi SW 8.1 mph - N/A Rain Rain
3:33 PM 51.8 °F - 51.8 °F 100% 29.54 in 9.0 mi WSW 9.2 mph - N/A Rain Light Rain
3:48 PM 51.8 °F - 51.8 °F 100% 29.56 in 10.0 mi WSW 9.2 mph - N/A Rain Light Rain
3:53 PM 51.8 °F - 51.8 °F 100% 29.57 in 10.0 mi WSW 9.2 mph - N/A Rain Light Rain
3:58 PM 52.3 °F - 52.3 °F 100% 29.61 in 6.0 mi SW 9.2 mph - 0.04 in Rain Rain
4:03 PM 51.8 °F - 51.8 °F 100% 29.57 in 6.0 mi SW 6.9 mph - N/A Rain Light Rain
4:08 PM 51.8 °F - 51.8 °F 100% 29.56 in 8.0 mi SW 6.9 mph - N/A Rain Light Rain
4:58 PM 51.8 °F - 51.8 °F 100% 29.52 in 10.0 mi South 9.2 mph - 0.05 in Rain Light Rain
5:58 PM 52.5 °F - 52.5 °F 100% 29.46 in 10.0 mi South 10.4 mph - 0.00 in   Partly Cloudy
6:36 PM 53.6 °F - 53.6 °F 100% 29.45 in 10.0 mi SSW 12.7 mph - N/A   Clear
6:58 PM 52.9 °F - 52.9 °F 100% 29.47 in 10.0 mi SSW 13.8 mph - N/A   Clear
7:58 PM 53.6 °F - 53.4 °F 99% 29.50 in 10.0 mi SSW 17.3 mph - N/A   Clear
8:58 PM 53.6 °F - 52.5 °F 96% 29.51 in 10.0 mi SW 13.8 mph - N/A   Scattered Clouds
9:58 PM 53.2 °F - 52.3 °F 97% 29.53 in 10.0 mi West 11.5 mph - N/A   Mostly Cloudy
10:03 PM 53.6 °F - 51.8 °F 94% 29.52 in 10.0 mi West 12.7 mph - N/A   Mostly Cloudy
10:28 PM 51.8 °F - 51.8 °F 100% 29.52 in 10.0 mi West 11.5 mph - N/A Rain Light Rain
10:58 PM 52.3 °F - 46.8 °F 81% 29.55 in 10.0 mi West 10.4 mph 20.7 mph 0.00 in   Overcast
11:58 PM 51.6 °F - 42.8 °F 72% 29.56 in 10.0 mi West 8.1 mph - 0.00 in   Mostly Cloudy